Weather History for Melfa, VA

Change the Weather History Date:

Sunday, April 7, 2013

  Actual Average (KWAL) Record (KWAL)
Temperature  
Mean Temperature 48 °F 51 °F  
Max Temperature 62 °F 60 °F 89 °F (2010)
Min Temperature 35 °F 42 °F 27 °F (1982)
Degree Days  
Heating Degree Days 16    
Month to date heating degree days  
Since 1 July heating degree days  
Cooling Degree Days 0    
Month to date cooling degree days  
Year to date cooling degree days  
Moisture  
Dew Point 42 °F    
Average Humidity 67    
Maximum Humidity 93    
Minimum Humidity 52    
Precipitation  
Precipitation 0.00 in 0.11 in 1.35 in (2003)
Month to date precipitation 0.81  
Year to date precipitation 10.61  
Sea Level Pressure  
Sea Level Pressure 30.21 in    
Wind  
Wind Speed 7 mph (SSE)    
Max Wind Speed 16 mph    
Max Gust Speed 26 mph    
Visibility 10 miles    
Events      
T = Trace of Precipitation, MM = Missing Value Source: NWS Daily Summary

Daily Weather History Graph

Daily Weather History Graph

Search for Another Location

Airport:

Trip Planner

Search our weather history database for the weather conditions in past years. The results will help you decide how hot, cold, wet, or windy it might be!

Date:

Astronomy

Apr. 07, 2013 Rise Set
Actual Time 6:39 AM EDT 7:31 PM EDT
Civil Twilight 6:12 AM EDT 7:58 PM EDT
Nautical Twilight 5:41 AM EDT 8:29 PM EDT
Astronomical Twilight 5:08 AM EDT 9:02 PM EDT
Moon 4:52 AM EDT (4/7) 5:03 PM EDT (4/7)
Length of Visible Light 13h 45m
Length of Day
12h 52m
Waning Crescent, 8% of the Moon is Illuminated
Apr 7
Waning Crescent
Apr 10
New
Apr 18
First Quarter
Apr 25
Full
May 2
Last Quarter

Hourly Weather History & Observations

Time (EDT) Temp. Windchill Dew Point Humidity Pressure Visibility Wind Dir Wind Speed Gust Speed Precip Events Conditions
12:15 AM 39.2 °F 37.0 °F 35.6 °F 87% 30.34 in 10.0 mi SE 3.5 mph - N/A   Clear
12:37 AM 39.2 °F - 33.8 °F 81% 30.34 in 10.0 mi Calm Calm - N/A   Clear
12:55 AM 37.4 °F - 33.8 °F 87% 30.34 in 10.0 mi Calm Calm - N/A   Clear
1:15 AM 37.4 °F - 33.8 °F 87% 30.33 in 10.0 mi Calm Calm - N/A   Clear
1:37 AM 37.4 °F - 33.8 °F 87% 30.32 in 10.0 mi Calm Calm - N/A   Clear
2:15 AM 37.4 °F 33.8 °F 33.8 °F 87% 30.30 in 10.0 mi ESE 4.6 mph - N/A   Clear
2:37 AM 37.4 °F 34.9 °F 33.8 °F 87% 30.29 in 10.0 mi ESE 3.5 mph - N/A   Clear
2:55 AM 35.6 °F - 33.8 °F 93% 30.28 in 10.0 mi Calm Calm - N/A   Clear
3:15 AM 37.4 °F 34.9 °F 33.8 °F 87% 30.28 in 10.0 mi SE 3.5 mph - N/A   Clear
3:35 AM 37.4 °F 34.9 °F 33.8 °F 87% 30.28 in 10.0 mi ESE 3.5 mph - N/A   Clear
3:55 AM 39.2 °F 37.0 °F 35.6 °F 87% 30.27 in 10.0 mi SE 3.5 mph - N/A   Clear
4:17 AM 39.2 °F 35.9 °F 35.6 °F 87% 30.27 in 10.0 mi SE 4.6 mph - N/A   Clear
4:37 AM 42.8 °F 40.1 °F 37.4 °F 81% 30.27 in 10.0 mi SE 4.6 mph - N/A   Clear
4:55 AM 42.8 °F 39.3 °F 37.4 °F 81% 30.27 in 10.0 mi ESE 5.8 mph - N/A   Clear
5:17 AM 42.8 °F 40.1 °F 37.4 °F 81% 30.28 in 10.0 mi SE 4.6 mph - N/A   Clear
5:35 AM 42.8 °F 40.1 °F 37.4 °F 81% 30.29 in 10.0 mi ESE 4.6 mph - N/A   Clear
5:55 AM 42.8 °F 39.3 °F 37.4 °F 81% 30.28 in 10.0 mi ESE 5.8 mph - N/A   Clear
6:17 AM 42.8 °F 40.1 °F 37.4 °F 81% 30.28 in 10.0 mi ESE 4.6 mph - N/A   Clear
6:35 AM 42.8 °F 39.3 °F 37.4 °F 81% 30.29 in 10.0 mi SE 5.8 mph - N/A   Clear
6:55 AM 42.8 °F 39.3 °F 37.4 °F 81% 30.28 in 10.0 mi ESE 5.8 mph - N/A   Clear
7:17 AM 44.6 °F 42.2 °F 37.4 °F 76% 30.29 in 10.0 mi SE 4.6 mph - N/A   Clear
7:35 AM 44.6 °F 42.2 °F 39.2 °F 81% 30.30 in 10.0 mi SE 4.6 mph - N/A   Clear
8:17 AM 48.2 °F - 41.0 °F 76% 30.31 in 10.0 mi SE 6.9 mph - N/A   Clear
8:35 AM 50.0 °F - 41.0 °F 71% 30.30 in 10.0 mi SE 8.1 mph - N/A   Clear
8:55 AM 51.8 °F - 42.8 °F 71% 30.30 in 10.0 mi SE 13.8 mph - N/A   Clear
9:17 AM 51.8 °F - 42.8 °F 71% 30.29 in 10.0 mi SE 9.2 mph - N/A   Clear
9:37 AM 53.6 °F - 42.8 °F 67% 30.30 in 10.0 mi SSE 8.1 mph - N/A   Clear
9:55 AM 55.4 °F - 42.8 °F 63% 30.29 in 10.0 mi SSE 10.4 mph - N/A   Clear
10:17 AM 55.4 °F - 42.8 °F 63% 30.29 in 10.0 mi South 6.9 mph - N/A   Clear
10:35 AM 57.2 °F - 42.8 °F 59% 30.29 in 10.0 mi South 9.2 mph - N/A   Clear
10:55 AM 57.2 °F - 42.8 °F 59% 30.29 in 10.0 mi SE 10.4 mph - N/A   Clear
11:17 AM 57.2 °F - 42.8 °F 59% 30.29 in 10.0 mi SSW 12.7 mph 16.1 mph N/A   Clear
11:36 AM 57.2 °F - 42.8 °F 59% 30.28 in 10.0 mi South 9.2 mph 17.3 mph N/A   Clear
11:55 AM 57.2 °F - 42.8 °F 59% 30.26 in 10.0 mi South 11.5 mph 19.6 mph N/A   Clear
12:15 PM 59.0 °F - 42.8 °F 55% 30.25 in 10.0 mi South 12.7 mph 20.7 mph N/A   Clear
12:39 PM 60.8 °F - 42.8 °F 52% 30.24 in 10.0 mi South 12.7 mph 19.6 mph N/A   Clear
12:55 PM 60.8 °F - 42.8 °F 52% 30.23 in 10.0 mi South 12.7 mph 21.9 mph N/A   Clear
1:15 PM 60.8 °F - 42.8 °F 52% 30.22 in 10.0 mi South 9.2 mph 20.7 mph N/A   Clear
1:35 PM 60.8 °F - 44.6 °F 55% 30.22 in 10.0 mi SSW 15.0 mph - N/A   Clear
1:57 PM 60.8 °F - 44.6 °F 55% 30.20 in 10.0 mi South 13.8 mph 23.0 mph N/A   Clear
2:15 PM 62.6 °F - 44.6 °F 52% 30.19 in 10.0 mi SSW 16.1 mph 21.9 mph N/A   Clear
2:35 PM 60.8 °F - 44.6 °F 55% 30.18 in 10.0 mi South 10.4 mph 23.0 mph N/A   Clear
2:57 PM 60.8 °F - 44.6 °F 55% 30.17 in 10.0 mi South 10.4 mph 16.1 mph N/A   Clear
3:18 PM 60.8 °F - 46.4 °F 59% 30.16 in 10.0 mi South 15.0 mph 18.4 mph N/A   Clear
3:35 PM 62.6 °F - 44.6 °F 52% 30.15 in 10.0 mi South 10.4 mph 19.6 mph N/A   Clear
3:55 PM 60.8 °F - 44.6 °F 55% 30.13 in 10.0 mi South 13.8 mph 23.0 mph N/A   Clear
4:17 PM 62.6 °F - 44.6 °F 52% 30.12 in 10.0 mi South 9.2 mph 21.9 mph N/A   Clear
4:35 PM 60.8 °F - 44.6 °F 55% 30.13 in 10.0 mi South 12.7 mph 18.4 mph N/A   Clear
4:57 PM 60.8 °F - 44.6 °F 55% 30.13 in 10.0 mi South 9.2 mph 21.9 mph N/A   Clear
5:15 PM 60.8 °F - 44.6 °F 55% 30.13 in 10.0 mi South 15.0 mph 20.7 mph N/A   Clear
5:35 PM 60.8 °F - 44.6 °F 55% 30.13 in 10.0 mi South 15.0 mph 23.0 mph N/A   Clear
5:57 PM 60.8 °F - 44.6 °F 55% 30.12 in 10.0 mi South 13.8 mph 26.5 mph N/A   Clear
6:18 PM 59.0 °F - 46.4 °F 63% 30.11 in 10.0 mi South 11.5 mph 20.7 mph N/A   Clear
6:35 PM 59.0 °F - 46.4 °F 63% 30.11 in 10.0 mi South 9.2 mph 17.3 mph N/A   Clear
6:55 PM 57.2 °F - 46.4 °F 67% 30.10 in 10.0 mi South 11.5 mph 19.6 mph N/A   Clear
7:17 PM 57.2 °F - 46.4 °F 67% 30.10 in 10.0 mi South 12.7 mph 20.7 mph N/A   Clear
7:35 PM 57.2 °F - 46.4 °F 67% 30.09 in 10.0 mi South 15.0 mph 20.7 mph N/A   Clear
7:57 PM 57.2 °F - 46.4 °F 67% 30.07 in 10.0 mi South 12.7 mph 23.0 mph N/A   Clear
8:15 PM 57.2 °F - 46.4 °F 67% 30.07 in 10.0 mi South 13.8 mph 19.6 mph N/A   Clear
8:35 PM 57.2 °F - 44.6 °F 63% 30.08 in 10.0 mi South 9.2 mph 16.1 mph N/A   Clear
8:57 PM 59.0 °F - 44.6 °F 59% 30.10 in 10.0 mi SSW 11.5 mph 19.6 mph N/A   Clear
9:15 PM 59.0 °F - 44.6 °F 59% 30.11 in 10.0 mi SSW 9.2 mph - N/A   Clear
9:35 PM 59.0 °F - 44.6 °F 59% 30.11 in 10.0 mi South 9.2 mph - N/A   Clear
9:57 PM 60.8 °F - 42.8 °F 52% 30.11 in 10.0 mi South 10.4 mph 17.3 mph N/A   Clear
10:15 PM 60.8 °F - 42.8 °F 52% 30.11 in 10.0 mi South 10.4 mph 18.4 mph N/A   Clear
10:35 PM 59.0 °F - 44.6 °F 59% 30.11 in 10.0 mi SSW 11.5 mph 17.3 mph N/A   Clear
10:57 PM 59.0 °F - 44.6 °F 59% 30.11 in 10.0 mi South 10.4 mph - N/A   Clear
11:15 PM 57.2 °F - 44.6 °F 63% 30.11 in 10.0 mi South 6.9 mph - N/A   Clear
11:35 PM 57.2 °F - 44.6 °F 63% 30.11 in 10.0 mi South 8.1 mph - N/A   Clear
11:57 PM 59.0 °F - 46.4 °F 63% 30.11 in 10.0 mi SSW 9.2 mph - N/A   Clear